www.pogodaiklimat.ru

Погода и климат >> Архив погоды >> Монголия >> Цэцэн-Уул


ПОГОДА в Цэцэн-Ууле

  • Прогноз погоды в Цэцэн-Ууле
  • Монитор погоды в Цэцэн-Ууле

АРХИВ ПОГОДЫ в Цэцэн-Ууле

Время (UTC), дата Ветер
(напр.,м/с)
 
Видим.   Явления Облачность Т
(С)
Тd
(С)
f
(%)
Тe
(С)
Тes
(С)
Комфортность P
(гПа)
Po
(гПа)
Тmin
(С)
Tmax
(С)
R
(мм)
R24
(мм)
S
(см)
12 12.07 штиль 0 50 км 8/3 600 м
[Cb calv Ac As]
+18.2 +5.9 44 +18 +19 1007.8 804.0 +19.1 0.0
15 12.07 штиль 0 н/о 8/0
[Ac und]
+13.8 +7.9 68 +14 +14 1011.9 804.5
18 12.07 С 1 н/о 9/6 600 м
[Cb cap Ac As]
+13.6 +8.5 71 +14 +14 1011.5 804.0
21 12.07 штиль 0 50 км 8/0
[Ac und]
+10.8 +9.9 94 +10 +10 1013.6 803.9
00 13.07 штиль 0 50 км 8/0
[Ac As Ci]
+9.6 +8.9 95 +9 +11 1014.6 803.9 +9.0
03 13.07 ЮЗ 4 50 км 9/4 600 м
[Cb calv Ac lent Cs]
+16.4 +9.1 62 +16 +19 1009.0 803.8
06 13.07 Ю 1 50 км 9/9 600 м
[Cb cap]
+18.5 +9.0 54 +20 +22 1006.6 803.2
09 13.07 Ю 2 50 км в посл. час ливневой дождь {гроза} туман 9/9 600 м
[Cb cap]
+16.0 +10.6 70 +16 +17 1007.8 802.6
12 13.07 ЮЗ 1 50 км {гроза, ливн. осадки} 9/9 600 м
[Cb cap]
+17.5 +12.0 70 +19 +19 1005.9 802.0 +19.7 0.2
15 13.07 З 1 н/о слаб. ливневой дождь 10/10 600 м
[Cb cap]
+15.3 +12.1 81 +16 +16 1008.6 802.8
18 13.07 штиль 0 н/о слаб. ливневой дождь 10/10 600 м
[Cb cap]
+13.6 +12.6 94 +13 +13 1010.6 803.3
21 13.07 штиль 0 50 км {ливн. осадки} 9/9 600 м
[Cb cap]
+12.4 +11.7 95 +12 +12 1009.7 801.8
00 14.07 штиль 0 50 км {ливн. осадки} 10/10 600 м
[Cb cap]
+13.3 +13.0 98 +13 +13 1007.9 801.0 +12.0 4
03 14.07 штиль 0 50 км 9/9 600 м
[Cb calv]
+16.4 +11.1 71 +16 +18 1005.5 801.0
06 14.07 штиль 0 50 км в посл. час гроза 9/9 600 м
[Cb cap]
+19.3 +11.6 61 +20 +23 1002.6 800.5
09 14.07 Ю 2 50 км {гроза, ливн. осадки} 8/8 600 м
[Cb cap]
+18.0 +13.4 74 +19 +20 1002.8 799.9
12 14.07 С 3 50 км {гроза, ливн. осадки} 6/4 600 м
[Cb calv Ac lent Ci]
+18.2 +11.1 63 +19 +19 1001.8 799.2 +19.7 3
15 14.07 С 2 н/о {гроза} 9/8 600 м
[Cb cap]
+16.0 +13.2 83 +16 +16 1004.9 800.3
18 14.07 штиль 0 н/о {гроза} 6/0
[Ac und]
+13.4 +12.6 95 +13 +13 1006.2 799.7
21 14.07 штиль 0 50 км 9/9 600 м
[Cb cap]
+12.2 +11.7 97 +12 +12 1006.8 799.4
00 15.07 штиль 0 50 км 9/9 600 м
[Cb cap Ac lent]
+13.5 +12.1 91 +13 +13 1005.8 799.4 +11.8
03 15.07 Ю 3 4000 м гроза без осадков туман 9/9 600 м
[Cb cap]
+15.6 +12.2 80 +15 +16 1003.3 798.8
06 15.07 Ю 3 4000 м слаб. ливневой дождь {гроза} 10/10 600 м
[Cb cap]
+13.4 +12.2 92 +12 +12 1005.7 799.3
09 15.07 З 2 50 км в посл. час ливневой дождь 10/10 600 м
[Cb cap]
+15.7 +11.3 75 +16 +16 1003.9 799.3
12 15.07 ЮЗ 2 50 км {ливн. осадки} 9/9 600 м
[Cb cap]
+15.8 +9.8 67 +16 +16 1004.6 799.9 +17.2 2
15 15.07 штиль 0 н/о 10/10 600 м
[Cb cap]
+14.2 +12.2 88 +14 +14 1007.1 800.9
18 15.07 штиль 0 н/о 8/8 600 м
[Cb cap]
+11.5 +11.0 97 +11 +11 1009.7 801.2
21 15.07 штиль 0 50 км 9/9 600 м
[Cb cap]
+10.4 +10.0 97 +10 +10 1010.8 801.4
00 16.07 штиль 0 50 км ясно +12.6 +11.6 94 +12 +15 1009.0 801.4 +9.8
03 16.07 Ю 1 50 км ясно +17.1 +10.4 65 +18 +33 опасность
простуды
1005.7 801.6
06 16.07 штиль 0 2000 м мгла 3/3 1000 м
[Cu med, cong]
+21.0 +7.9 43 +22 +38 комфорт 1002.0 801.1
09 16.07 штиль 0 10 км мгла 4/4 1000 м
[Cu med, cong]
+23.7 +7.4 35 +24 +32 комфорт 999.4 800.6
12 16.07 штиль 0 50 км 6/6 600 м
[Cb cap]
+22.1 +11.9 52 +24 +25 комфорт 1000.9 800.9 +23.7
15 16.07 В 2 н/о зарница 6/6 600 м
[Cb cap]
+16.4 +11.1 71 +17 +17 1006.2 801.6
18 16.07 штиль 0 н/о гроза, ливневой дождь 9/9 600 м
[Cb cap]
+15.2 +12.5 84 +15 +15 1008.1 802.3
21 16.07 штиль 0 50 км {гроза, ливн. осадки} 3/0
[Ac lent]
+14.8 +11.0 78 +15 +15 1008.0 802.0
00 17.07 ЮЗ 1 50 км {гроза, ливн. осадки} 1/0
[Ci]
+16.7 +12.7 77 +18 +20 1007.1 802.5 +13.9 5
03 17.07 ЮЗ 3 50 км ясно +20.9 +12.6 59 +24 +34 комфорт 1006.1 804.3
06 17.07 Ю 2 50 км 3/1 1000 м
[Cu hum Ci fib]
+22.5 +13.0 55 +25 +40 комфорт 1003.6 803.3
09 17.07 ЮЗ 2 50 км 8/5 1000 м
[Cu med, cong Ci]
+23.6 +9.5 41 +25 +29 комфорт 1002.7 803.2
12 17.07 З 1 50 км 3/0
[Ci]
+22.4 +6.6 36 +23 +24 комфорт 1003.7 803.3 +24.3
15 17.07 штиль 0 50 км ясно +16.0 +6.4 53 +16 +16 1010.4 804.7
18 17.07 штиль 0 50 км ясно +10.6 +9.1 90 +10 +10 1015.1 804.9
21 17.07 штиль 0 50 км ясно +8.1 +7.7 97 +7 +7 1017.2 804.6
00 18.07 штиль 0 50 км ясно +12.6 +9.7 82 +12 +15 1013.4 804.9 +7.5
03 18.07 штиль 0 4000 м мгла ясно +21.8 +8.3 42 +23 +40 комфорт 1005.3 804.2
06 18.07 штиль 0 4000 м мгла 4/4 1000 м
[Cu med, cong]
+24.5 +6.3 31 +24 +38 комфорт 1002.0 803.2
09 18.07 СВ 3 10 км гроза без осадков туман 9/9 600 м
[Cb cap]
+22.8 +7.2 37 +24 +24 комфорт 1002.2 802.3
12 18.07 ЮВ 3 10 км осадки на расстоянии {гроза, ливн. осадки} туман 10/10 600 м
[Cb cap]
+14.2 +13.4 95 +13 +13 1012.0 804.8 +26.0 7
15 18.07 В 2 н/о {ливн. осадки} 5/5 600 м
[Cb cap]
+13.8 +9.9 77 +13 +13 1012.4 804.9
18 18.07 штиль 0 50 км {ливн. осадки} ясно +12.5 +9.4 81 +12 +12 1011.0 802.9
21 18.07 штиль 0 50 км ясно +10.3 +9.2 93 +10 +10 1012.3 802.5
00 19.07 штиль 0 50 км ясно +10.5 +9.2 92 +10 +13 1012.0 802.4 +8.3 0.0
03 19.07 Ю 3 50 км 1/0
[Ci]
+19.0 +11.3 61 +20 +30 1005.2 802.4
06 19.07 ЮЗ 5 50 км 8/8 600 м
[Cb cap]
+22.4 +10.3 46 +24 +26 комфорт 1001.7 801.7
09 19.07 ЮЗ 6 50 км {ливн. осадки} 9/6 600 м
[Cb cap Ci ing]
+23.2 +9.0 40 +25 +26 комфорт 1000.2 801.0

 

Местоположение метеостанции Цэцэн-Уул (Монголия): широта 48.77 долгота 96.00 высота над уровнем моря 1928 м.

В архиве по умолчанию представлена погода в Цэцэн-Ууле за последнюю неделю. Архивные данные за месяц целиком и за предыдущие месяцы, начиная с января 2011 года, Вы можете получить, выбрав интересующий диапазон дат из раскрывающегося списка и нажав кнопку "Ввод!".


*Определитесь, кто Вы:
робот инопланетянин человек

Внимание! Время в таблицах - всемирное. Для получения местного времени необходимо прибавить поправку, которая равна 8 ч.

Смотрите также архив погоды в соседних городах и на ближайших метеорологических станциях:

Погода в Тэсе (Монголия) (99 км)
Погода в Ургамале (Монголия) (128 км)
Погода в Улиастае (Монголия) (130 км)
Погода в Баруунтурууне (Монголия) (152 км)
Погода в Тосонцэнгэле (Монголия) (161 км)
Погода в Эрзине (Тува, Россия) (179 км)
Погода в Завхане (Монголия) (213 км)
Погода в Кунгур-Туке (Алтай, Россия) (231 км)
Погода в Алтае (Монголия) (264 км)
Погода в Баянбулаге (Монголия) (266 км)

Пояснения к столбцам:

Ветер - указаны скорость ветра в м/с - средняя за 10 мин, порывы в срок и между сроками (в фигурных скобках) и направление, откуда дует ветер: С - северный, СВ - северо-восточный, В - восточный, ЮВ - юго-восточный, Ю - южный, ЮЗ - юго-западный, З - западный, СЗ - северо-западный.
Видимость - горизонтальная дальность видимости в метрах или километрах. При видимости от 1 до 10 км при отсутствии осадков обычно наблюдается дымка, при ухудшении видимости до 1 км и менее - туман. В сухую погоду видимость может ухудшаться дымом, пылью или мглою.
Явления - указаны атмосферные явления, наблюдавшиеся в срок или в последний час перед сроком; фигурными скобками обозначены явления, наблюдавшиеся между сроками (за 1-3 часа до срока); квадратными скобками обозначены град или гололедные отложения с указанием их диаметра в мм.
Облачность - указаны через наклонную черту общая и нижняя облачность в баллах и высота нижней границы облаков в метрах; квадратными скобками обозначены формы облаков: Ci - перистые, Cs - перисто-слоистые, Cc - перисто-кучевые, Ac - высококучевые, As - высокослоистые, Sc - слоисто-кучевые, Ns - слоисто-дождевые, Cu - кучевые, Cb - кучево-дождевые. Подробнее классификацию облаков см. в Атласе облаков (PDF).
T - Температура воздуха - температура, измеренная на высоте 2 м над землей.
Td - Температура точки росы - температура, при понижении до которой содержащийся в воздухе водяной пар достигнет насыщения.
f - Относительная влажность воздуха - влажноcть воздуха, измеренная на высоте 2 м над землей.
Te - Эффективная температура - температура, которую ощущает одетый по сезону человек в тени. Характеристика душности погоды. При расчете учитывается влияние влажности воздуха и скорости ветра на теплоощущения человека.
Tes - Эффективная температура на солнце - температура, которую ощущает человек, с поправкой на солнечный нагрев. Характеристика знойности погоды. Зависит от высоты солнца над горизонтом, облачности и скорости ветра. Ночью, в пасмурную погоду, а также при ветре 12 м/с и более поправка равна нулю.
P - Атмосферное давление - приведенное к уровню моря атмосферное давление.
Po - Атмосферное давление - измеренное на уровне метеостанции атмосферное давление.
Tmin - Минимальная температура - минимум температуры воздуха на высоте 2 м над землей.
Tmax - Максимальная температура - максимум температуры воздуха на высоте 2 м над землей.
R - Количество осадков - Количество выпавших осадков за период времени, мм. При наведении курсора мыши на число - период времени, за который выпало указанное количество осадков.
R24 - Количество осадков - Количество выпавших осадков за 24 часа, мм.
S - Снежный покров - Высота снежного покрова, см. При наведении курсора мыши на число - состояние снежного покрова и степень покрытия местности в баллах.